Szolnok, Hungary

4:22 PM CEST on June 27, 2017 (GMT +0200)
Szolnok

Weather History for LHSN - November, 2013

Change the Weather History Date:

Wednesday, November 27, 2013

  Actual Average (LHBP) Record (LHBP)
Temperature  
Mean Temperature 32 °F -  
Max Temperature 39 °F 41 °F 59 °F (2012)
Min Temperature 26 °F 31 °F 17 °F (1999)
Degree Days  
Heating Degree Days 32    
Moisture  
Dew Point 23 °F    
Average Humidity 70    
Maximum Humidity 93    
Minimum Humidity 56    
Precipitation  
Precipitation 0.00 in - - ()
Sea Level Pressure  
Sea Level Pressure 30.30 in    
Wind  
Wind Speed 11 mph ()    
Max Wind Speed 22 mph    
Max Gust Speed 27 mph    
Visibility 4.0 miles    
Events      
Averages and records for this station are not official NWS values.
T = Trace of Precipitation, MM = Missing Value Source: Averaged Metar Reports

Daily Weather History Graph

Daily Weather History Graph

Search for Another Location

Airport or City:

Trip Planner

Search our weather history database for the weather conditions in past years. The results will help you decide how hot, cold, wet, or windy it might be!

Date:

Astronomy

Nov. 27, 2013 Rise Set
Actual Time 6:59 AM CET 3:53 PM CET
Civil Twilight 6:24 AM CET 4:28 PM CET
Nautical Twilight 5:47 AM CET 5:05 PM CET
Astronomical Twilight 5:10 AM CET 5:42 PM CET
Moon 12:20 AM CET 12:42 PM CET
Length of Visible Light 10h 03m
Length of Day
8h 54m
Waning Crescent, 34% of the Moon is Illuminated
Nov 27
Waning Crescent
Dec 3
New
Dec 9
First Quarter
Dec 17
Full
Dec 25
Last Quarter

Hourly Weather History & Observations

Time (CET) Temp. Windchill Dew Point Humidity Pressure Visibility Wind Dir Wind Speed Gust Speed Precip Events Conditions
12:00 AM - - - N/A% - 1.7 mi North - - N/A   Unknown
12:15 AM 32.0 °F 21.4 °F 23.0 °F 69% 30.18 in - NNE 15.7 mph - N/A   Clear
12:45 AM 32.0 °F 21.4 °F 21.2 °F 64% 30.18 in - NNE 15.7 mph - N/A   Clear
1:15 AM 33.8 °F 23.7 °F 21.2 °F 60% 30.18 in - NNE 15.7 mph - N/A   Clear
1:45 AM 33.8 °F 21.7 °F 21.2 °F 60% 30.18 in - NE 22.4 mph - N/A   Clear
2:15 AM 33.8 °F 22.3 °F 23.0 °F 65% 30.18 in - NE 20.1 mph - N/A   Clear
2:45 AM 33.8 °F 23.0 °F 23.0 °F 65% 30.18 in - NE 17.9 mph - N/A   Clear
3:15 AM 32.0 °F 20.6 °F 23.0 °F 69% 30.18 in - NNE 17.9 mph - N/A   Clear
3:45 AM 32.0 °F 20.6 °F 23.0 °F 69% 30.18 in - NNE 17.9 mph - N/A   Clear
4:15 AM 32.0 °F 21.4 °F 23.0 °F 69% 30.21 in - NNE 15.7 mph - N/A   Clear
4:45 AM 32.0 °F 22.2 °F 23.0 °F 69% 30.21 in - NNE 13.4 mph - N/A   Clear
5:15 AM 32.0 °F 22.2 °F 23.0 °F 69% 30.21 in - NNE 13.4 mph - N/A   Clear
5:45 AM - - - N/A% - - NNE 11.2 mph - N/A   Clear
6:15 AM 32.0 °F 23.2 °F 23.0 °F 69% 30.24 in - NNE 11.2 mph - N/A   Clear
6:45 AM 30.2 °F 20.9 °F 23.0 °F 75% 30.24 in - NNE 11.2 mph - N/A   Clear
7:15 AM 30.2 °F 22.1 °F 23.0 °F 75% 30.24 in - NNE 8.9 mph - N/A   Clear
7:45 AM 30.2 °F 20.9 °F 23.0 °F 75% 30.27 in - NNE 11.2 mph - N/A   Clear
8:15 AM 32.0 °F 22.2 °F 23.0 °F 69% 30.27 in - NNE 13.4 mph - N/A   Clear
8:45 AM - - - N/A% - - NNE 11.2 mph - N/A   Clear
9:15 AM 33.8 °F 23.7 °F 23.0 °F 65% 30.30 in - NE 15.7 mph - N/A   Clear
9:45 AM 35.6 °F 26.0 °F 23.0 °F 60% 30.30 in - NE 15.7 mph - N/A   Clear
10:15 AM 35.6 °F 26.0 °F 23.0 °F 60% 30.30 in - NE 15.7 mph - N/A   Clear
10:16 AM 35.6 °F 26.0 °F 23.0 °F 60% 30.30 in - NE 15.7 mph 26.8 mph N/A   Clear
10:45 AM 35.6 °F 25.3 °F 23.0 °F 60% 30.30 in - NE 17.9 mph - N/A   Clear
11:15 AM 37.4 °F 28.3 °F 23.0 °F 56% 30.30 in - NE 15.7 mph - N/A   Clear
11:45 AM - - - N/A% - - NNE 11.2 mph - N/A   Clear
12:15 PM 37.4 °F 29.1 °F 24.8 °F 60% 30.30 in - NNE 13.4 mph - N/A   Clear
12:45 PM 39.2 °F 31.3 °F 24.8 °F 56% 30.30 in - NNE 13.4 mph - N/A   Clear
1:15 PM 39.2 °F 31.3 °F 24.8 °F 56% 30.30 in - NNE 13.4 mph - N/A   Clear
1:45 PM 39.2 °F 31.3 °F 24.8 °F 56% 30.30 in - NNE 13.4 mph - N/A   Clear
2:15 PM 39.2 °F 32.2 °F 24.8 °F 56% 30.33 in - NNE 11.2 mph - N/A   Clear
2:45 PM - - - N/A% - - NNE 11.2 mph - N/A   Clear
3:15 PM 37.4 °F 32.2 °F 24.8 °F 60% 30.33 in - NNE 6.7 mph - N/A   Clear
3:45 PM 35.6 °F 31.8 °F 24.8 °F 65% 30.33 in - NNE 4.5 mph - N/A   Clear
4:15 PM 35.6 °F 31.8 °F 24.8 °F 65% 30.36 in - NE 4.5 mph - N/A   Clear
4:45 PM 32.0 °F - 24.8 °F 75% 30.36 in - East 2.2 mph - N/A   Clear
5:15 PM 33.8 °F - 24.8 °F 70% 30.36 in - ENE 2.2 mph - N/A   Clear
5:45 PM 32.0 °F - 24.8 °F 75% 30.39 in - North 2.2 mph - N/A   Clear
6:15 PM 32.0 °F 27.6 °F 23.0 °F 69% 30.39 in - North 4.5 mph - N/A   Clear
6:45 PM 32.0 °F 27.6 °F 23.0 °F 69% 30.39 in - North 4.5 mph - N/A   Clear
7:15 PM 28.4 °F - 23.0 °F 80% 30.39 in - North 2.2 mph - N/A   Clear
7:45 PM 28.4 °F - 24.8 °F 86% 30.39 in - Calm Calm - N/A   Clear
8:15 PM 28.4 °F - 23.0 °F 80% 30.39 in - ENE 2.2 mph - N/A   Clear
8:45 PM - - - N/A% - 6.2 mi Variable 4.5 mph - N/A   Clear
9:15 PM 28.4 °F 23.4 °F 23.0 °F 80% 30.42 in - NNW 4.5 mph - N/A   Clear
9:45 PM 26.6 °F - 23.0 °F 86% 30.42 in - NNW 2.2 mph - N/A   Clear
10:15 PM 26.6 °F - 23.0 °F 86% 30.42 in - Calm Calm - N/A   Clear
10:45 PM 26.6 °F - 24.8 °F 93% 30.42 in - West 2.2 mph - N/A   Clear
11:15 PM 26.6 °F - 24.8 °F 93% 30.42 in - SSW 2.2 mph - N/A   Clear
11:45 PM 26.6 °F 21.3 °F 24.8 °F 93% 30.42 in - SW 4.5 mph - N/A   Clear